Regional Weather Roundup
Issued by NWS

Home | Current Version | Previous Version | Graphics & Text | Print | Product List | Glossary On
Versions: 1 2 3 4 5 6 7 8 9 10 11 12 13 14 15 16 17 18 19 20 21 22 23 24 25 26 27 28 29 30 31 32 33 34 35 36 37 38 39 40 41 42 43 44 45 46 47 48 49 50
000
ASUS43 KBIS 250002
RWRND

NORTH DAKOTA REGIONAL WEATHER ROUNDUP
NATIONAL WEATHER SERVICE BISMARCK ND
700 PM CDT MON APR 24 2017

NOTE: "FAIR" INDICATES FEW OR NO CLOUDS BELOW 12,000 FEET WITH NO
SIGNIFICANT WEATHER AND/OR OBSTRUCTIONS TO VISIBILITY.


NDZ001>003-009>011-017-250100-
NORTHWEST NORTH DAKOTA

CITY           SKY/WX    TMP DP  RH WIND       PRES   REMARKS
WILLISTON      CLOUDY    35  27  72 NE13      29.76R
6HR MIN TEMP:  34; 6HR MAX TEMP:  38;

MINOT          CLOUDY    34  28  79 N9        29.75R
MINOT AFB      CLOUDY    33  27  77 NE13      29.75R
$$

NDZ018>021-031>035-040>046-250100-
SOUTHWEST NORTH DAKOTA

CITY           SKY/WX    TMP DP  RH WIND       PRES   REMARKS
BISMARCK       CLOUDY    38  31  76 N8        29.71R
6HR MIN TEMP:  37; 6HR MAX TEMP:  41;

DICKINSON      CLOUDY    35  29  78 NE14      29.66R
GARRISON         N/A     32  27  81 NE12      29.72R
6HR MIN TEMP:  32; 6HR MAX TEMP:  34;

HETTINGER ARPT CLOUDY    41  35  79 NE12      29.66R
$$

NDZ004>008-012>016-024-026-027-054-250100-
NORTHEAST NORTH DAKOTA

CITY           SKY/WX    TMP DP  RH WIND       PRES   REMARKS
GRAND FORKS    CLOUDY    36  35  96 N17       29.63R
GRND FRKS AFB  CLOUDY    33  33  99 N17       29.64S
DEVILS LAKE    CLOUDY    33  29  85 N15       29.69R
$$

NDZ022-023-025-028>030-036>039-047>053-250100-
SOUTHEAST NORTH DAKOTA

CITY           SKY/WX    TMP DP  RH WIND       PRES   REMARKS
FARGO          CLOUDY    42  41  96 NW18      29.55R
6HR MIN TEMP:  42; 6HR MAX TEMP:  53; 6HR PCP:  0.02;

JAMESTOWN      CLOUDY    34  33  96 N18       29.63R
$$




USA.gov is the U.S. government's official web portal to all federal, state and local government web resources and services.